Temp_Advection
nan nan nan nan nan nan nan nan nan nan nan nan nan nan nan nan nan nan nan nan nan nan nan nan nan nan nan nan nan nan nan nan nan
nan 0 0 0 0 -0 0 0 0 0 0 -0 0 0 0 -0 0 0 0 0 0 0 -0 -0 -0 0 -0 -0 -0 -0 -0 -0 nan
nan 0 0 0 0 0 0 0 0 0 0 -0 0 -0 0 0 -0 -0 0 0 0 0 0 -0 -0 -0 -0 -0 -0 -0 -0 0 nan
nan 0 0 0 0 0 0 0 0 0 0 0 0 0 -0 -0 0 -0 -0 0 0 0 0 0 -0 -0 -0 0 0 -0 -0 -0 nan
nan 0 0 0 0 0 0 0 0 0 0 0 0 0 0 -0 -0 -0 0 0 0 0 0 -0 0 0 0 -0 0 0 0 -1 nan
nan 1 0 0 0 0 0 0 0 0 0 0 0 0 0 0 0 -0 -0 0 0 0 0 -0 -0 -0 -0 0 0 -0 -0 0 nan
nan 0 0 0 0 0 0 -0 0 0 0 0 0 0 0 0 0 0 0 -0 0 0 0 0 -0 0 0 -0 -0 0 -0 0 nan
nan 0 0 -0 -0 0 0 0 0 0 -0 0 0 -0 0 -0 -0 0 0 0 0 0 0 0 0 0 0 -0 -0 1 1 0 nan
nan 0 0 -0 -0 0 0 -0 -0 0 0 -0 0 0 0 -0 -0 -0 0 0 0 0 0 0 0 -0 0 0 0 0 -0 -0 nan
nan 0 0 0 0 -0 -0 -0 -0 0 0 0 0 0 0 -0 -0 -0 0 0 -0 -0 0 0 -0 -0 -0 0 0 0 0 -0 nan
nan 0 0 0 0 0 0 -0 0 0 0 0 0 0 0 0 0 0 -0 -0 0 -0 0 0 -0 0 0 -0 0 -0 -0 0 nan
nan 0 0 0 0 0 0 0 0 0 0 0 0 0 0 0 0 0 0 -0 0 -0 -0 0 0 0 0 0 0 0 0 -0 nan
nan 0 0 0 0 0 0 0 0 0 0 0 0 0 0 0 0 0 0 0 -0 -0 -0 0 0 0 -0 0 0 0 -0 -0 nan
nan 0 0 0 0 0 0 0 0 0 0 0 0 0 0 0 0 0 -0 -0 -0 -0 0 0 0 -0 -0 -0 0 0 0 -0 nan
nan -0 0 0 0 0 0 0 0 0 0 0 0 0 0 0 0 0 -0 0 0 0 0 0 0 -0 -0 -0 -0 0 0 0 nan
nan 0 0 0 0 0 0 0 0 0 0 0 0 0 0 0 0 0 0 0 0 0 0 1 0 0 -0 -0 -0 -0 0 0 nan
nan -0 -0 -0 -0 0 0 0 0 0 0 0 -0 0 -0 -0 -0 0 0 0 0 0 0 0 0 -0 -1 -0 -0 0 0 0 nan
nan -0 -0 -0 -0 0 0 0 0 1 0 -0 -0 -0 -0 -0 0 0 0 0 0 0 0 0 -0 -1 -1 -0 0 0 0 0 nan
nan -0 -0 0 -0 -0 -0 -0 0 0 -0 -0 -0 -0 -0 0 0 0 -0 0 0 0 -0 -0 -0 -1 -1 -0 0 0 0 0 nan
nan nan nan nan nan nan nan nan nan nan nan nan nan nan nan nan nan nan nan nan nan nan nan nan nan nan nan nan nan nan nan nan nan
Wind_Speed
15 14 12 9 6 7 6 7 9 12 16 21 21 21 18 15 14 18 22 22 17 19 20 20 19 16 16 17 17 15 17 16 18
15 13 12 9 6 4 5 9 12 15 19 22 22 19 17 15 17 17 17 19 16 19 18 17 15 15 14 14 14 20 22 23 22
16 15 12 10 7 3 10 12 14 17 21 19 19 17 18 17 14 13 14 14 14 14 11 9 12 12 15 15 17 20 21 20 22
16 17 14 11 8 7 15 13 12 18 21 18 17 18 18 18 14 11 12 14 13 12 9 9 10 12 15 17 20 19 20 21 20
21 16 16 14 9 14 17 16 16 18 19 19 16 15 14 10 10 10 8 9 13 13 12 13 14 14 18 19 19 18 19 18 18
18 17 18 13 12 20 18 16 14 18 21 18 17 13 10 8 7 5 7 11 13 15 16 18 16 17 16 18 18 18 17 17 17
17 16 18 16 21 20 19 15 14 18 22 19 13 8 7 6 6 8 9 11 14 15 17 17 17 18 18 17 16 15 16 13 14
16 19 22 20 22 22 20 15 10 17 20 18 10 7 5 5 6 12 12 12 14 15 16 17 16 17 17 15 14 13 11 12 11
19 21 21 22 23 22 20 15 13 8 15 15 9 8 5 6 5 12 13 13 12 14 15 16 16 14 13 13 10 9 10 9 9
22 23 22 20 19 18 20 17 13 14 11 12 16 15 7 8 6 10 13 15 13 14 13 14 14 13 13 11 9 8 7 7 7
23 24 23 26 18 17 18 14 15 14 15 14 14 14 11 11 10 6 14 16 12 12 13 13 14 12 12 8 6 5 4 4 5
21 25 24 24 19 16 18 14 14 17 16 15 16 18 14 12 12 9 12 12 14 13 12 12 13 13 10 5 5 3 2 3 4
21 25 21 23 22 15 17 17 17 16 16 16 18 19 20 11 9 12 12 12 14 12 11 9 9 12 7 4 3 2 1 2 3
19 23 23 19 18 24 17 18 19 16 15 14 16 17 18 15 12 13 13 12 12 16 16 11 8 12 8 7 5 3 3 3 3
15 19 16 17 22 23 22 20 20 17 16 15 15 16 18 20 17 12 13 13 15 15 17 17 15 14 12 11 8 6 6 6 6
20 22 22 20 23 24 25 20 21 20 22 19 16 17 18 20 22 20 18 16 18 17 18 18 20 18 18 17 13 11 10 9 9
25 27 26 27 24 24 26 25 26 25 21 24 19 12 18 22 23 24 21 22 20 21 21 20 20 21 20 19 17 15 14 13 12
17 19 20 21 23 24 27 29 29 29 27 25 17 8 10 14 24 26 27 27 25 26 26 25 25 26 23 22 19 18 17 16 15
15 16 17 19 20 24 25 26 27 26 28 27 26 13 8 10 8 22 28 29 30 30 31 30 30 31 29 26 23 22 20 19 19
15 16 17 18 19 20 22 23 27 28 27 28 27 27 21 16 13 14 19 22 29 32 31 30 30 31 31 30 28 26 23 22 22
Wind_Direction
168 165 166 156 164 118 132 141 134 124 122 123 129 118 108 121 126 121 113 107 109 111 112 110 106 102 95 91 82 83 87 84 86
185 179 180 192 219 236 169 145 135 129 128 128 127 119 129 126 126 115 113 112 119 123 121 118 109 100 89 83 82 91 91 86 83
191 192 193 200 213 217 158 134 131 132 131 131 125 133 135 136 137 130 120 114 121 126 131 118 109 97 95 88 90 95 91 90 88
189 192 194 201 209 169 134 128 131 136 137 132 134 142 133 134 138 127 108 119 127 126 127 129 112 106 103 102 101 97 94 95 91
197 193 196 206 201 156 151 150 142 147 144 139 136 146 148 151 129 119 113 126 116 124 126 120 116 110 109 108 107 103 98 91 87
187 199 197 198 183 159 160 155 153 142 145 145 146 149 153 159 165 148 126 126 126 123 121 121 119 120 119 112 109 100 96 92 89
183 182 182 180 162 168 160 161 158 151 150 159 154 154 152 164 163 146 139 134 133 130 123 125 125 124 114 109 108 106 99 90 86
185 168 163 169 172 172 167 165 161 165 157 151 153 168 185 170 158 133 143 149 141 136 134 129 123 123 119 112 112 108 97 79 72
160 168 169 175 175 173 166 161 141 135 151 153 169 169 173 155 167 142 157 151 148 138 136 137 136 133 129 124 125 101 85 80 71
172 171 165 172 184 181 166 154 165 169 164 176 175 172 195 179 181 164 161 156 161 151 153 144 142 140 133 130 112 97 86 73 60
180 174 176 175 182 185 178 164 179 174 184 180 171 168 203 206 203 222 166 159 166 162 161 157 147 146 141 141 120 105 93 76 54
186 179 184 182 180 179 180 188 184 187 189 183 171 171 192 208 214 221 171 179 178 180 176 165 158 155 159 145 143 130 89 47 34
195 183 181 183 187 183 183 190 188 195 191 189 181 178 184 200 202 188 186 183 174 189 198 211 186 186 191 182 186 201 294 350 2
199 195 185 180 196 197 192 197 200 194 193 199 188 186 185 186 197 192 194 194 193 198 203 216 231 218 224 223 232 246 273 299 318
195 182 191 199 209 200 193 199 197 204 196 192 200 196 193 190 192 193 201 202 211 219 217 218 228 237 246 251 254 260 270 282 292
190 195 198 202 212 208 193 200 203 202 199 193 199 198 197 203 203 195 202 205 215 223 225 227 231 241 248 254 259 265 270 275 282
209 211 209 211 216 204 195 200 202 208 207 205 207 208 214 215 212 204 209 213 212 225 225 234 235 240 247 255 257 261 266 272 278
219 222 226 226 221 213 206 206 212 213 208 217 206 195 219 220 225 222 218 218 219 220 231 233 238 248 252 254 257 258 261 267 271
224 229 228 229 226 223 221 216 219 222 220 217 220 210 207 204 214 222 227 229 233 231 231 236 237 247 255 259 259 258 259 262 267
237 240 240 239 235 233 232 230 226 231 233 231 233 228 222 212 214 222 228 232 235 240 242 245 244 244 249 256 261 261 260 261 264
Height
1550 1552 1553 1554 1556 1559 1560 1560 1562 1564 1565 1567 1569 1572 1574 1576 1576 1577 1578 1579 1581 1581 1582 1583 1583 1583 1583 1582 1582 1582 1584 1583 1582
1551 1552 1554 1555 1557 1559 1561 1562 1563 1565 1567 1569 1571 1575 1576 1577 1579 1580 1581 1581 1583 1584 1584 1584 1585 1585 1584 1584 1584 1585 1586 1586 1586
1551 1553 1555 1556 1558 1560 1561 1563 1565 1567 1569 1571 1574 1576 1577 1578 1580 1581 1582 1584 1584 1585 1585 1586 1586 1586 1586 1586 1587 1588 1588 1588 1589
1551 1553 1555 1556 1559 1561 1562 1565 1567 1569 1571 1574 1576 1576 1578 1579 1581 1583 1584 1585 1586 1586 1586 1586 1587 1587 1587 1588 1589 1590 1590 1591 1591
1550 1553 1555 1557 1560 1562 1564 1566 1568 1570 1573 1576 1578 1578 1579 1581 1583 1584 1585 1586 1586 1587 1587 1587 1587 1588 1589 1590 1591 1592 1592 1593 1593
1550 1552 1555 1558 1560 1562 1565 1567 1570 1571 1574 1577 1577 1579 1581 1582 1584 1585 1586 1586 1587 1587 1587 1588 1588 1589 1590 1591 1592 1593 1593 1593 1593
1549 1551 1554 1558 1560 1562 1564 1568 1570 1572 1575 1576 1579 1580 1583 1583 1585 1585 1587 1587 1587 1588 1589 1589 1590 1590 1592 1593 1593 1593 1594 1593 1593
1549 1551 1555 1558 1559 1562 1564 1568 1570 1573 1575 1577 1580 1582 1583 1584 1585 1585 1587 1588 1588 1589 1590 1591 1591 1592 1593 1593 1593 1594 1593 1593 1594
1548 1552 1554 1557 1559 1561 1564 1568 1571 1574 1576 1578 1580 1582 1582 1584 1585 1586 1587 1588 1588 1589 1591 1592 1592 1593 1593 1593 1593 1593 1594 1594 1594
1547 1551 1554 1558 1560 1563 1565 1569 1571 1574 1576 1578 1579 1582 1581 1584 1584 1585 1587 1588 1589 1589 1591 1592 1593 1594 1594 1594 1594 1594 1594 1595 1595
1547 1551 1553 1556 1559 1563 1566 1568 1570 1572 1574 1576 1578 1581 1580 1582 1583 1584 1586 1588 1590 1590 1591 1592 1592 1594 1594 1593 1593 1594 1595 1595 1596
1545 1549 1553 1556 1559 1562 1565 1568 1569 1570 1572 1574 1577 1580 1580 1580 1582 1583 1585 1587 1589 1590 1591 1593 1592 1593 1593 1593 1594 1594 1595 1595 1596
1543 1547 1551 1554 1558 1560 1564 1566 1567 1569 1570 1572 1575 1577 1579 1579 1581 1582 1584 1586 1588 1590 1591 1592 1593 1593 1591 1592 1593 1594 1595 1595 1595
1541 1544 1549 1553 1556 1559 1562 1565 1566 1567 1569 1571 1573 1575 1577 1579 1580 1580 1582 1585 1586 1587 1589 1590 1591 1591 1591 1591 1592 1593 1593 1594 1594
1539 1543 1548 1551 1553 1556 1559 1562 1564 1566 1568 1570 1572 1573 1575 1577 1578 1579 1581 1583 1584 1584 1587 1588 1588 1588 1590 1590 1590 1591 1592 1592 1592
1536 1541 1544 1547 1550 1553 1556 1560 1562 1563 1565 1567 1569 1571 1571 1574 1575 1577 1579 1580 1581 1583 1584 1584 1586 1586 1587 1588 1588 1589 1590 1590 1590
1535 1538 1542 1544 1547 1550 1553 1555 1558 1561 1562 1563 1566 1568 1570 1570 1571 1574 1576 1577 1579 1579 1580 1581 1581 1583 1584 1585 1586 1586 1586 1587 1587
1533 1536 1539 1541 1544 1547 1549 1552 1553 1556 1558 1559 1562 1564 1563 1565 1567 1568 1570 1572 1574 1576 1577 1577 1577 1578 1580 1581 1582 1582 1583 1583 1582
1531 1534 1536 1538 1541 1543 1546 1549 1550 1552 1554 1556 1557 1559 1560 1560 1562 1563 1565 1567 1568 1569 1571 1572 1573 1572 1573 1575 1577 1577 1579 1579 1579
1529 1532 1533 1535 1537 1540 1542 1545 1547 1548 1550 1551 1554 1555 1557 1557 1556 1556 1558 1560 1561 1562 1563 1565 1567 1568 1568 1569 1571 1572 1574 1575 1575